| time (UTC) | temp F | wind direction | speed MPH | gust MPH | rain 1hr in | rain 24hr in | rain mn in | humidity % | barometer mb |
| 20260504160338 | 72 | 127 | 3.0 | 5.0 | 0.00 | 0.00 | 0.00 | 62 | 1013.8 |
| 20260504150802 | 65 | 133 | 3.0 | 3.0 | 0.00 | 0.00 | 0.00 | 78 | 1014.3 |
| 20260504150259 | 63 | 189 | 3.0 | 3.0 | 0.00 | 0.00 | 0.00 | 79 | 1014.4 |
| 20260504141229 | 59 | 155 | 0.0 | 1.0 | 0.00 | 0.00 | 0.00 | 83 | 1014.5 |
| 20260504140725 | 60 | 142 | 1.0 | 3.0 | 0.00 | 0.00 | 0.00 | 83 | 1014.5 |
| 20260504140221 | 59 | 157 | 1.0 | 5.0 | 0.00 | 0.00 | 0.00 | 84 | 1014.4 |
| 20260504130649 | 57 | 172 | 0.0 | 1.0 | 0.00 | 0.00 | 0.00 | 87 | 1013.8 |
| 20260504130146 | 56 | 159 | 0.0 | 1.0 | 0.00 | 0.00 | 0.00 | 87 | 1014.1 |
| 20260504120110 | 55 | 152 | 0.0 | 1.0 | 0.00 | 0.00 | 0.00 | 82 | 1015.4 |
| 20260504110537 | 56 | 167 | 1.0 | 2.0 | 0.00 | 0.00 | 0.00 | 77 | 1015.0 |
| 20260504100454 | 55 | 152 | 0.0 | 1.0 | 0.00 | 0.00 | 0.00 | 72 | 1014.6 |
| 20260504081847 | 55 | 155 | 0.0 | 0.0 | 0.00 | 0.00 | 0.00 | 68 | 1015.1 |
| 20260504081343 | 55 | 155 | 0.0 | 0.0 | 0.00 | 0.00 | 0.00 | 68 | 1015.1 |
| 20260504080839 | 55 | 155 | 0.0 | 0.0 | 0.00 | 0.00 | 0.00 | 68 | 1014.9 |
| 20260504080337 | 54 | 155 | 0.0 | 0.0 | 0.00 | 0.00 | 0.00 | 68 | 1015.0 |
| 20260504070304 | 55 | 155 | 0.0 | 0.0 | 0.00 | 0.00 | 0.00 | 66 | 1015.9 |
| 20260504060219 | 54 | 147 | 0.0 | 0.0 | 0.00 | 0.00 | 0.00 | 64 | 1016.4 |
| 20260504050646 | 56 | 156 | 0.0 | 1.0 | 0.00 | 0.00 | 0.00 | 60 | 1016.7 |
| 20260504050143 | 56 | 148 | 0.0 | 1.0 | 0.00 | 0.00 | 0.00 | 59 | 1016.8 |
| 20260504045641 | 57 | 154 | 0.0 | 1.0 | 0.00 | 0.00 | 0.00 | 59 | 1016.9 |
| 20260504045140 | 57 | 179 | 2.0 | 3.0 | 0.00 | 0.00 | 0.00 | 59 | 1017.2 |
| 20260504044638 | 57 | 153 | 0.0 | 3.0 | 0.00 | 0.00 | 0.00 | 59 | 1017.0 |
| 20260504044135 | 57 | 152 | 0.0 | 1.0 | 0.00 | 0.00 | 0.00 | 58 | 1017.0 |
| 20260504043632 | 57 | 142 | 1.0 | 1.0 | 0.00 | 0.00 | 0.00 | 58 | 1017.2 |
| 20260504043129 | 57 | 158 | 2.0 | 2.0 | 0.00 | 0.00 | 0.00 | 58 | 1016.8 |
| 20260504042627 | 57 | 152 | 0.0 | 1.0 | 0.00 | 0.00 | 0.00 | 58 | 1017.0 |
| 20260504042123 | 57 | 152 | 1.0 | 2.0 | 0.00 | 0.00 | 0.00 | 58 | 1016.7 |
| 20260504041619 | 57 | 156 | 1.0 | 2.0 | 0.00 | 0.00 | 0.00 | 58 | 1017.0 |
| 20260504041115 | 57 | 150 | 0.0 | 1.0 | 0.00 | 0.00 | 0.00 | 58 | 1017.3 |
| 20260504040613 | 57 | 151 | 0.0 | 1.0 | 0.00 | 0.00 | 0.00 | 58 | 1017.2 |
| 20260504040109 | 57 | 150 | 1.0 | 1.0 | 0.00 | 0.00 | 0.00 | 57 | 1017.5 |
| 20260504035606 | 57 | 150 | 1.0 | 2.0 | 0.00 | 0.00 | 0.00 | 57 | 1017.4 |
| 20260504035103 | 57 | 138 | 0.0 | 1.0 | 0.00 | 0.00 | 0.00 | 57 | 1017.4 |
| 20260504034601 | 57 | 158 | 1.0 | 1.0 | 0.00 | 0.00 | 0.00 | 57 | 1017.5 |
| 20260504034057 | 57 | 150 | 0.0 | 1.0 | 0.00 | 0.00 | 0.00 | 57 | 1017.5 |
| 20260504033555 | 57 | 220 | 2.0 | 2.0 | 0.00 | 0.00 | 0.00 | 57 | 1017.4 |
| 20260504033052 | 57 | 156 | 1.0 | 2.0 | 0.00 | 0.00 | 0.00 | 57 | 1017.6 |
| 20260504032549 | 57 | 166 | 1.0 | 2.0 | 0.00 | 0.00 | 0.00 | 57 | 1017.8 |
| 20260504032046 | 57 | 175 | 2.0 | 3.0 | 0.00 | 0.00 | 0.00 | 57 | 1017.6 |
| 20260504031543 | 57 | 151 | 0.0 | 2.0 | 0.00 | 0.00 | 0.00 | 57 | 1017.8 |
| 20260504031039 | 57 | 158 | 1.0 | 2.0 | 0.00 | 0.00 | 0.00 | 57 | 1017.7 |
| 20260504030537 | 57 | 163 | 0.0 | 2.0 | 0.00 | 0.00 | 0.00 | 57 | 1017.6 |
| 20260504030032 | 57 | 160 | 1.0 | 1.0 | 0.00 | 0.00 | 0.00 | 57 | 1017.6 |
| 20260504025530 | 57 | 154 | 0.0 | 1.0 | 0.00 | 0.00 | 0.00 | 57 | 1018.0 |
| 20260504025026 | 57 | 156 | 1.0 | 1.0 | 0.00 | 0.00 | 0.00 | 57 | 1017.8 |
| 20260504024524 | 57 | 158 | 1.0 | 1.0 | 0.00 | 0.00 | 0.00 | 57 | 1017.9 |
| 20260504024020 | 57 | 150 | 0.0 | 2.0 | 0.00 | 0.00 | 0.00 | 57 | 1018.1 |
| 20260504023517 | 57 | 174 | 1.0 | 2.0 | 0.00 | 0.00 | 0.00 | 57 | 1018.1 |
| 20260504023013 | 57 | 157 | 1.0 | 1.0 | 0.00 | 0.00 | 0.00 | 57 | 1017.8 |
| 20260504022509 | 57 | 153 | 0.0 | 1.0 | 0.00 | 0.00 | 0.00 | 57 | 1018.0 |
| 20260504022006 | 56 | 155 | 0.0 | 1.0 | 0.00 | 0.00 | 0.00 | 57 | 1017.9 |
| 20260504021504 | 56 | 163 | 0.0 | 1.0 | 0.00 | 0.00 | 0.00 | 57 | 1018.1 |
| 20260504021000 | 57 | 163 | 0.0 | 1.0 | 0.00 | 0.00 | 0.00 | 56 | 1017.8 |
| 20260504020456 | 57 | 163 | 0.0 | 0.0 | 0.00 | 0.00 | 0.00 | 56 | 1017.8 |
| 20260504015953 | 57 | 163 | 0.0 | 0.0 | 0.00 | 0.00 | 0.00 | 56 | 1018.0 |
| 20260504015449 | 57 | 163 | 0.0 | 1.0 | 0.00 | 0.00 | 0.00 | 56 | 1018.1 |
| 20260504014945 | 57 | 163 | 0.0 | 1.0 | 0.00 | 0.00 | 0.00 | 55 | 1018.2 |
| 20260504014442 | 57 | 163 | 1.0 | 1.0 | 0.00 | 0.00 | 0.00 | 55 | 1018.1 |
| 20260504013938 | 57 | 162 | 0.0 | 0.0 | 0.00 | 0.00 | 0.00 | 55 | 1018.1 |
| 20260504013437 | 57 | 161 | 0.0 | 1.0 | 0.00 | 0.00 | 0.00 | 55 | 1018.0 |
| 20260504012933 | 57 | 151 | 0.0 | 0.0 | 0.00 | 0.00 | 0.00 | 55 | 1018.1 |
| 20260504012431 | 56 | 142 | 0.0 | 0.0 | 0.00 | 0.00 | 0.00 | 55 | 1018.0 |
| 20260504011928 | 57 | 142 | 0.0 | 0.0 | 0.00 | 0.00 | 0.00 | 54 | 1018.3 |
| 20260504011425 | 57 | 142 | 0.0 | 0.0 | 0.00 | 0.00 | 0.00 | 54 | 1018.2 |
| 20260504010920 | 57 | 142 | 0.0 | 0.0 | 0.00 | 0.00 | 0.00 | 53 | 1018.4 |
| 20260504010417 | 57 | 142 | 0.0 | 0.0 | 0.00 | 0.00 | 0.00 | 52 | 1018.4 |
| 20260504005913 | 58 | 142 | 0.0 | 0.0 | 0.00 | 0.00 | 0.00 | 52 | 1018.2 |
| 20260504005410 | 59 | 147 | 0.0 | 0.0 | 0.00 | 0.00 | 0.00 | 51 | 1018.3 |
| 20260504004908 | 59 | 155 | 0.0 | 0.0 | 0.00 | 0.00 | 0.00 | 51 | 1018.1 |
| 20260504004405 | 59 | 153 | 0.0 | 0.0 | 0.00 | 0.00 | 0.00 | 50 | 1017.9 |
| 20260504003902 | 59 | 153 | 0.0 | 1.0 | 0.00 | 0.00 | 0.00 | 49 | 1018.0 |
| 20260504003358 | 60 | 146 | 0.0 | 0.0 | 0.00 | 0.00 | 0.00 | 48 | 1018.1 |
| 20260504002855 | 60 | 146 | 0.0 | 0.0 | 0.00 | 0.00 | 0.00 | 48 | 1018.1 |
| 20260504002352 | 60 | 145 | 0.0 | 0.0 | 0.00 | 0.00 | 0.00 | 47 | 1017.8 |
| 20260504001849 | 61 | 145 | 0.0 | 0.0 | 0.00 | 0.00 | 0.00 | 47 | 1017.7 |
| 20260504001347 | 61 | 148 | 0.0 | 1.0 | 0.00 | 0.00 | 0.00 | 46 | 1017.7 |
| 20260504000843 | 61 | 153 | 0.0 | 0.0 | 0.00 | 0.00 | 0.00 | 46 | 1017.8 |
| 20260504000340 | 62 | 147 | 0.0 | 2.0 | 0.00 | 0.00 | 0.00 | 46 | 1017.3 |
| 20260503235838 | 62 | 163 | 0.0 | 1.0 | 0.00 | 0.00 | 0.00 | 45 | 1017.4 |
| 20260503235335 | 62 | 152 | 0.0 | 2.0 | 0.00 | 0.00 | 0.00 | 45 | 1017.4 |
| 20260503234833 | 62 | 157 | 0.0 | 1.0 | 0.00 | 0.00 | 0.00 | 44 | 1017.6 |
| 20260503234330 | 63 | 199 | 2.0 | 3.0 | 0.00 | 0.00 | 0.00 | 44 | 1017.3 |
| 20260503233828 | 63 | 201 | 3.0 | 3.0 | 0.00 | 0.00 | 0.00 | 44 | 1017.3 |
| 20260503233324 | 63 | 143 | 0.0 | 1.0 | 0.00 | 0.00 | 0.00 | 44 | 1017.7 |
| 20260503232820 | 63 | 152 | 0.0 | 3.0 | 0.00 | 0.00 | 0.00 | 43 | 1017.5 |
| 20260503232318 | 63 | 154 | 1.0 | 2.0 | 0.00 | 0.00 | 0.00 | 43 | 1017.6 |
| 20260503231816 | 64 | 161 | 1.0 | 3.0 | 0.00 | 0.00 | 0.00 | 42 | 1017.4 |
| 20260503231312 | 64 | 261 | 2.0 | 3.0 | 0.00 | 0.00 | 0.00 | 41 | 1017.2 |
| 20260503230808 | 64 | 166 | 2.0 | 3.0 | 0.00 | 0.00 | 0.00 | 41 | 1017.5 |
| 20260503230306 | 64 | 126 | 1.0 | 3.0 | 0.00 | 0.00 | 0.00 | 41 | 1017.5 |
| 20260503225803 | 64 | 307 | 2.0 | 3.0 | 0.00 | 0.00 | 0.00 | 41 | 1017.7 |
| 20260503225258 | 64 | 156 | 1.0 | 3.0 | 0.00 | 0.00 | 0.00 | 40 | 1017.5 |
| 20260503224755 | 64 | 285 | 2.0 | 3.0 | 0.00 | 0.00 | 0.00 | 40 | 1017.9 |
| 20260503224253 | 65 | 137 | 1.0 | 3.0 | 0.00 | 0.00 | 0.00 | 40 | 1017.9 |
| 20260503223750 | 64 | 153 | 2.0 | 2.0 | 0.00 | 0.00 | 0.00 | 40 | 1017.9 |
| 20260503223248 | 64 | 148 | 3.0 | 6.0 | 0.00 | 0.00 | 0.00 | 39 | 1018.2 |
| 20260503222743 | 65 | 211 | 3.0 | 5.0 | 0.00 | 0.00 | 0.00 | 39 | 1018.3 |
| 20260503222242 | 64 | 169 | 2.0 | 2.0 | 0.00 | 0.00 | 0.00 | 40 | 1018.4 |
| 20260503221740 | 64 | 138 | 1.0 | 2.0 | 0.00 | 0.00 | 0.00 | 39 | 1018.5 |
| 20260503221238 | 64 | 104 | 1.0 | 10.0 | 0.00 | 0.00 | 0.00 | 38 | 1018.5 |
| 20260503220734 | 64 | 162 | 1.0 | 5.0 | 0.00 | 0.00 | 0.00 | 38 | 1018.5 |
| 20260503220231 | 65 | 179 | 0.0 | 8.0 | 0.00 | 0.00 | 0.00 | 37 | 1018.7 |
| 20260503215727 | 64 | 175 | 1.0 | 2.0 | 0.00 | 0.00 | 0.00 | 37 | 1018.8 |
| 20260503215225 | 65 | 218 | 1.0 | 3.0 | 0.00 | 0.00 | 0.00 | 36 | 1018.9 |
| 20260503214723 | 66 | 150 | 1.0 | 3.0 | 0.00 | 0.00 | 0.00 | 36 | 1018.8 |
| 20260503214219 | 67 | 156 | 2.0 | 3.0 | 0.00 | 0.00 | 0.00 | 35 | 1019.1 |
| 20260503213717 | 67 | 150 | 0.0 | 3.0 | 0.00 | 0.00 | 0.00 | 35 | 1019.0 |
| 20260503213214 | 66 | 157 | 0.0 | 3.0 | 0.00 | 0.00 | 0.00 | 35 | 1019.7 |
| 20260503212711 | 67 | 140 | 4.0 | 6.0 | 0.00 | 0.00 | 0.00 | 35 | 1019.4 |
| 20260503212209 | 67 | 224 | 2.0 | 8.0 | 0.00 | 0.00 | 0.00 | 34 | 1019.5 |
| 20260503211706 | 68 | 220 | 2.0 | 6.0 | 0.00 | 0.00 | 0.00 | 34 | 1019.3 |
| 20260503211202 | 68 | 114 | 2.0 | 7.0 | 0.00 | 0.00 | 0.00 | 35 | 1019.6 |
| 20260503210658 | 68 | 184 | 1.0 | 3.0 | 0.00 | 0.00 | 0.00 | 35 | 1019.7 |
| 20260503210155 | 67 | 138 | 1.0 | 3.0 | 0.00 | 0.00 | 0.00 | 35 | 1019.8 |
| 20260503205650 | 67 | 147 | 2.0 | 3.0 | 0.00 | 0.00 | 0.00 | 35 | 1019.3 |
| 20260503205147 | 68 | 211 | 2.0 | 5.0 | 0.00 | 0.00 | 0.00 | 34 | 1019.3 |
| 20260503204643 | 68 | 166 | 1.0 | 8.0 | 0.00 | 0.00 | 0.00 | 34 | 1019.4 |
| 20260503204141 | 67 | 173 | 2.0 | 3.0 | 0.00 | 0.00 | 0.00 | 34 | 1019.6 |
| 20260503203638 | 67 | 203 | 3.0 | 6.0 | 0.00 | 0.00 | 0.00 | 34 | 1019.6 |
| 20260503203136 | 67 | 167 | 0.0 | 3.0 | 0.00 | 0.00 | 0.00 | 34 | 1019.6 |
| 20260503202633 | 67 | 223 | 5.0 | 8.0 | 0.00 | 0.00 | 0.00 | 34 | 1019.8 |
| 20260503202131 | 67 | 148 | 1.0 | 5.0 | 0.00 | 0.00 | 0.00 | 34 | 1019.9 |
| 20260503201629 | 67 | 196 | 4.0 | 6.0 | 0.00 | 0.00 | 0.00 | 34 | 1020.0 |
| 20260503201126 | 67 | 245 | 1.0 | 3.0 | 0.00 | 0.00 | 0.00 | 34 | 1020.2 |
| 20260503200622 | 67 | 143 | 4.0 | 8.0 | 0.00 | 0.00 | 0.00 | 34 | 1020.2 |
| 20260503200118 | 66 | 167 | 2.0 | 2.0 | 0.00 | 0.00 | 0.00 | 34 | 1020.2 |
| 20260503195616 | 66 | 237 | 3.0 | 6.0 | 0.00 | 0.00 | 0.00 | 34 | 1020.5 |
| 20260503195112 | 66 | 233 | 3.0 | 9.0 | 0.00 | 0.00 | 0.00 | 34 | 1020.2 |
| 20260503194609 | 66 | 143 | 1.0 | 6.0 | 0.00 | 0.00 | 0.00 | 34 | 1020.7 |
| 20260503194104 | 66 | 180 | 2.0 | 9.0 | 0.00 | 0.00 | 0.00 | 34 | 1020.8 |
| 20260503193601 | 66 | 131 | 2.0 | 6.0 | 0.00 | 0.00 | 0.00 | 34 | 1020.7 |
| 20260503193056 | 66 | 322 | 4.0 | 7.0 | 0.00 | 0.00 | 0.00 | 34 | 1021.0 |
| 20260503192553 | 66 | 129 | 3.0 | 5.0 | 0.00 | 0.00 | 0.00 | 34 | 1021.3 |
| 20260503192048 | 66 | 185 | 2.0 | 5.0 | 0.00 | 0.00 | 0.00 | 34 | 1021.5 |
| 20260503191540 | 66 | 226 | 4.0 | 6.0 | 0.00 | 0.00 | 0.00 | 34 | 1021.6 |
| 20260503191037 | 66 | 151 | 1.0 | 5.0 | 0.00 | 0.00 | 0.00 | 34 | 1021.5 |
| 20260503190533 | 65 | 151 | 0.0 | 3.0 | 0.00 | 0.00 | 0.00 | 35 | 1021.1 |
| 20260503190030 | 65 | 111 | 3.0 | 6.0 | 0.00 | 0.00 | 0.00 | 34 | 1021.8 |
| 20260503185526 | 66 | 196 | 3.0 | 7.0 | 0.00 | 0.00 | 0.00 | 34 | 1022.1 |
| 20260503185021 | 66 | 159 | 2.0 | 3.0 | 0.00 | 0.00 | 0.00 | 35 | 1022.1 |
| 20260503184518 | 66 | 180 | 2.0 | 2.0 | 0.00 | 0.00 | 0.00 | 35 | 1021.9 |
| 20260503184014 | 65 | 173 | 2.0 | 3.0 | 0.00 | 0.00 | 0.00 | 36 | 1022.2 |
| 20260503183511 | 64 | 239 | 3.0 | 5.0 | 0.00 | 0.00 | 0.00 | 36 | 1022.3 |
| 20260503183008 | 64 | 140 | 2.0 | 6.0 | 0.00 | 0.00 | 0.00 | 35 | 1022.4 |
| 20260503182507 | 65 | 203 | 3.0 | 5.0 | 0.00 | 0.00 | 0.00 | 35 | 1022.4 |
| 20260503182005 | 64 | 231 | 3.0 | 5.0 | 0.00 | 0.00 | 0.00 | 35 | 1022.5 |
| 20260503181500 | 64 | 157 | 0.0 | 3.0 | 0.00 | 0.00 | 0.00 | 36 | 1022.3 |
| 20260503180956 | 63 | 85 | 1.0 | 5.0 | 0.00 | 0.00 | 0.00 | 36 | 1022.8 |
| 20260503180454 | 64 | 288 | 4.0 | 6.0 | 0.00 | 0.00 | 0.00 | 35 | 1022.5 |
| 20260503175951 | 64 | 140 | 3.0 | 6.0 | 0.00 | 0.00 | 0.00 | 35 | 1022.8 |
| 20260503175449 | 64 | 201 | 2.0 | 6.0 | 0.00 | 0.00 | 0.00 | 36 | 1022.8 |
| 20260503174945 | 64 | 148 | 1.0 | 3.0 | 0.00 | 0.00 | 0.00 | 36 | 1022.8 |
| 20260503174443 | 63 | 137 | 1.0 | 2.0 | 0.00 | 0.00 | 0.00 | 36 | 1022.6 |
| 20260503173938 | 63 | 135 | 5.0 | 6.0 | 0.00 | 0.00 | 0.00 | 36 | 1023.0 |
| 20260503173434 | 63 | 143 | 1.0 | 5.0 | 0.00 | 0.00 | 0.00 | 35 | 1023.0 |
| 20260503172931 | 64 | 165 | 0.0 | 5.0 | 0.00 | 0.00 | 0.00 | 35 | 1022.9 |
| 20260503172429 | 63 | 132 | 3.0 | 7.0 | 0.00 | 0.00 | 0.00 | 35 | 1023.3 |
| 20260503171925 | 63 | 191 | 1.0 | 3.0 | 0.00 | 0.00 | 0.00 | 35 | 1023.3 |
| 20260503171422 | 64 | 136 | 2.0 | 6.0 | 0.00 | 0.00 | 0.00 | 35 | 1023.6 |
| 20260503170919 | 64 | 174 | 2.0 | 3.0 | 0.00 | 0.00 | 0.00 | 36 | 1023.4 |
| 20260503170415 | 63 | 150 | 0.0 | 3.0 | 0.00 | 0.00 | 0.00 | 36 | 1023.6 |